TimeCDT,TemperatureF,Dew PointF,Humidity,Sea Level PressureIn,VisibilityMPH,Wind Direction,Wind SpeedMPH,Gust SpeedMPH,PrecipitationIn,Events,Conditions,WindDirDegrees,DateUTC
12:08 AM,72.0,62.1,71,-9999,-9999.0,SSE,9.2,-,N/A,,Unknown,160,2013-07-12 05:08:00
12:28 AM,72.0,61.2,69,-9999,-9999.0,SSE,10.4,-,N/A,,Unknown,160,2013-07-12 05:28:00
12:48 AM,72.0,61.2,69,-9999,-9999.0,SSE,11.5,-,N/A,,Unknown,160,2013-07-12 05:48:00
1:08 AM,72.0,61.2,69,-9999,-9999.0,SSE,10.4,-,N/A,,Unknown,160,2013-07-12 06:08:00
1:28 AM,72.0,61.2,69,-9999,-9999.0,South,11.5,-,N/A,,Unknown,170,2013-07-12 06:28:00
1:48 AM,71.1,61.2,71,-9999,-9999.0,South,9.2,-,N/A,,Unknown,170,2013-07-12 06:48:00
2:08 AM,70.0,62.1,76,-9999,-9999.0,SSE,8.1,-,N/A,,Unknown,160,2013-07-12 07:08:00
2:28 AM,69.1,61.2,76,-9999,-9999.0,SSE,6.9,-,N/A,,Unknown,160,2013-07-12 07:28:00
2:48 AM,68.0,61.2,79,-9999,-9999.0,SSE,8.1,-,N/A,,Unknown,160,2013-07-12 07:48:00
3:08 AM,68.0,61.2,79,-9999,-9999.0,SSE,8.1,-,N/A,,Unknown,160,2013-07-12 08:08:00
3:28 AM,66.9,61.2,82,-9999,-9999.0,SSE,10.4,-,N/A,,Unknown,160,2013-07-12 08:28:00
3:48 AM,66.9,61.2,82,-9999,-9999.0,SSE,8.1,-,N/A,,Unknown,160,2013-07-12 08:48:00
4:08 AM,66.9,61.2,82,-9999,-9999.0,SSE,6.9,-,N/A,,Unknown,160,2013-07-12 09:08:00
4:28 AM,66.9,61.2,82,-9999,-9999.0,SSE,6.9,-,N/A,,Unknown,160,2013-07-12 09:28:00
4:48 AM,66.9,61.2,82,-9999,-9999.0,South,8.1,-,N/A,,Unknown,170,2013-07-12 09:48:00
5:08 AM,66.9,61.2,82,-9999,-9999.0,South,6.9,-,N/A,,Unknown,180,2013-07-12 10:08:00
5:28 AM,68.0,60.1,76,-9999,-9999.0,South,9.2,-,N/A,,Unknown,180,2013-07-12 10:28:00
5:48 AM,68.0,60.1,76,-9999,-9999.0,South,9.2,-,N/A,,Unknown,180,2013-07-12 10:48:00
6:08 AM,69.1,59.2,71,-9999,-9999.0,South,11.5,-,N/A,,Unknown,190,2013-07-12 11:08:00
6:28 AM,69.1,59.2,71,-9999,-9999.0,South,10.4,-,N/A,,Unknown,190,2013-07-12 11:28:00
6:48 AM,69.1,59.2,71,-9999,-9999.0,South,11.5,-,N/A,,Unknown,170,2013-07-12 11:48:00
7:08 AM,66.9,60.1,79,-9999,-9999.0,South,10.4,-,N/A,,Unknown,170,2013-07-12 12:08:00
7:28 AM,68.0,61.2,79,-9999,-9999.0,SSE,10.4,-,N/A,,Unknown,160,2013-07-12 12:28:00
7:48 AM,69.1,62.1,78,-9999,-9999.0,SSE,10.4,-,N/A,,Unknown,160,2013-07-12 12:48:00
8:08 AM,72.0,61.2,69,-9999,-9999.0,SSE,11.5,-,N/A,,Unknown,160,2013-07-12 13:08:00
8:28 AM,73.9,60.1,62,-9999,-9999.0,South,11.5,-,N/A,,Unknown,180,2013-07-12 13:28:00
8:48 AM,78.1,59.2,52,-9999,-9999.0,SSW,12.7,-,N/A,,Unknown,200,2013-07-12 13:48:00
9:08 AM,81.0,57.0,44,-9999,-9999.0,SSW,15.0,-,N/A,,Unknown,200,2013-07-12 14:08:00
9:28 AM,82.9,57.0,41,-9999,-9999.0,SSW,13.8,-,N/A,,Unknown,200,2013-07-12 14:28:00
9:49 AM,-9999,-9999,N/A,-9999,-9999.0,North,-9999.0,-,N/A,,Unknown,0,2013-07-12 14:49:00
10:08 AM,87.1,57.0,36,-9999,-9999.0,SSW,18.4,-,N/A,,Unknown,200,2013-07-12 15:08:00
10:28 AM,-9999,-9999,N/A,-9999,-9999.0,North,-9999.0,-,N/A,,Unknown,0,2013-07-12 15:28:00
10:48 AM,89.1,57.0,34,-9999,-9999.0,SSW,18.4,-,N/A,,Unknown,210,2013-07-12 15:48:00
11:08 AM,91.0,57.0,32,-9999,-9999.0,SSW,16.1,-,N/A,,Unknown,210,2013-07-12 16:08:00
11:28 AM,91.9,58.1,32,-9999,-9999.0,SSW,12.7,-,N/A,,Unknown,200,2013-07-12 16:28:00
11:48 AM,93.0,57.0,30,-9999,-9999.0,SW,16.1,-,N/A,,Unknown,220,2013-07-12 16:48:00
12:08 PM,93.0,55.0,28,-9999,-9999.0,SSW,17.3,-,N/A,,Unknown,200,2013-07-12 17:08:00
12:28 PM,95.0,55.0,26,-9999,-9999.0,SSW,19.6,-,N/A,,Unknown,200,2013-07-12 17:28:00
12:48 PM,95.0,56.1,27,-9999,-9999.0,SSW,16.1,-,N/A,,Unknown,200,2013-07-12 17:48:00
1:08 PM,96.1,56.1,26,-9999,-9999.0,SSW,21.9,-,N/A,,Unknown,200,2013-07-12 18:08:00
1:28 PM,96.1,57.0,27,-9999,-9999.0,South,15.0,-,N/A,,Unknown,190,2013-07-12 18:28:00
1:48 PM,97.0,57.0,26,-9999,-9999.0,South,19.6,-,N/A,,Unknown,170,2013-07-12 18:48:00
2:08 PM,97.0,57.0,26,-9999,-9999.0,South,17.3,-,N/A,,Unknown,190,2013-07-12 19:08:00
2:28 PM,97.0,56.1,25,-9999,-9999.0,South,17.3,-,N/A,,Unknown,180,2013-07-12 19:28:00
2:48 PM,97.0,58.1,27,-9999,-9999.0,South,16.1,-,N/A,,Unknown,180,2013-07-12 19:48:00
3:08 PM,98.1,58.1,26,-9999,-9999.0,South,17.3,-,N/A,,Unknown,180,2013-07-12 20:08:00
3:28 PM,98.1,58.1,26,-9999,-9999.0,South,13.8,-,N/A,,Unknown,170,2013-07-12 20:28:00
3:48 PM,97.0,58.1,27,-9999,-9999.0,South,17.3,-,N/A,,Unknown,170,2013-07-12 20:48:00
4:08 PM,98.1,58.1,26,-9999,-9999.0,SSE,18.4,-,N/A,,Unknown,150,2013-07-12 21:08:00
4:28 PM,98.1,56.1,25,-9999,-9999.0,South,16.1,-,N/A,,Unknown,180,2013-07-12 21:28:00
4:48 PM,98.1,58.1,26,-9999,-9999.0,SSE,18.4,-,N/A,,Unknown,160,2013-07-12 21:48:00
5:08 PM,98.1,58.1,26,-9999,-9999.0,SSE,16.1,-,N/A,,Unknown,160,2013-07-12 22:08:00
5:28 PM,95.0,57.0,28,-9999,-9999.0,SSE,16.1,-,N/A,,Unknown,150,2013-07-12 22:28:00
5:48 PM,97.0,59.2,28,-9999,-9999.0,SSE,16.1,-,N/A,,Unknown,160,2013-07-12 22:48:00
6:08 PM,97.0,58.1,27,-9999,-9999.0,SSE,16.1,-,N/A,,Unknown,160,2013-07-12 23:08:00
6:28 PM,97.0,57.0,26,-9999,-9999.0,SSE,18.4,-,N/A,,Unknown,160,2013-07-12 23:28:00
6:48 PM,-9999,-9999,N/A,-9999,-9999.0,North,-9999.0,-,N/A,,Unknown,0,2013-07-12 23:48:00
7:08 PM,95.0,56.1,27,-9999,-9999.0,South,18.4,-,N/A,,Unknown,170,2013-07-13 00:08:00
7:28 PM,95.0,56.1,27,-9999,-9999.0,SSE,16.1,-,N/A,,Unknown,150,2013-07-13 00:28:00
7:48 PM,93.0,57.0,30,-9999,-9999.0,SSE,15.0,-,N/A,,Unknown,160,2013-07-13 00:48:00
8:08 PM,91.9,57.0,31,-9999,-9999.0,SSE,16.1,-,N/A,,Unknown,160,2013-07-13 01:08:00
8:28 PM,90.0,56.1,32,-9999,-9999.0,SSE,16.1,-,N/A,,Unknown,160,2013-07-13 01:28:00
8:48 PM,-9999,-9999,N/A,-9999,-9999.0,North,-9999.0,-,N/A,,Unknown,0,2013-07-13 01:48:00
9:08 PM,84.9,56.1,37,-9999,-9999.0,SSE,11.5,-,N/A,,Unknown,150,2013-07-13 02:08:00
9:28 PM,82.9,56.1,40,-9999,-9999.0,SSE,10.4,-,N/A,,Unknown,150,2013-07-13 02:28:00
9:48 PM,82.0,57.0,42,-9999,-9999.0,SSE,11.5,-,N/A,,Unknown,150,2013-07-13 02:48:00
10:08 PM,82.0,57.0,42,-9999,-9999.0,SSE,11.5,-,N/A,,Unknown,150,2013-07-13 03:08:00
10:28 PM,-9999,-9999,N/A,-9999,-9999.0,North,-9999.0,-,N/A,,Unknown,0,2013-07-13 03:28:00
10:48 PM,80.1,58.1,47,-9999,-9999.0,SSE,10.4,-,N/A,,Unknown,160,2013-07-13 03:48:00
11:08 PM,80.1,57.0,45,-9999,-9999.0,SSE,12.7,-,N/A,,Unknown,160,2013-07-13 04:08:00
11:28 PM,79.0,58.1,49,-9999,-9999.0,SSE,11.5,-,N/A,,Unknown,160,2013-07-13 04:28:00
11:48 PM,79.0,57.0,47,-9999,-9999.0,South,11.5,-,N/A,,Unknown,170,2013-07-13 04:48:00